Regional Weather Roundup
Issued by NWS Columbia, SC

Home | Current Version | Previous Version | Text Only | Print | Product List | Glossary On
Versions: 1 2 3 4 5 6 7 8 9 10 11 12 13 14 15 16 17 18 19 20 21 22 23 24 25 26 27 28 29 30 31 32 33 34 35 36 37 38 39 40 41 42 43 44 45 46 47 48 49 50
107
ASUS42 KCAE 141910
RWRCAE
REGIONAL WEATHER ROUNDUP
NATIONAL WEATHER SERVICE COLUMBIA SC
200 PM EST SUN FEB 14 2016

NOTE: "FAIR" INDICATES FEW OR NO CLOUDS BELOW 12,000 FEET WITH NO
SIGNIFICANT WEATHER AND/OR OBSTRUCTIONS TO VISIBILITY.

NOT ALL STATIONS ARE QUALITY CONTROLLED BY THE NATIONAL
WEATHER SERVICE. USE DATA WITH CAUTION...ESPECIALLY
DEWPOINT OBSERVATIONS.

SCZ001>056-GAZ040-063>065-077-142000-
...UPSTATE SOUTH CAROLINA...

CITY           SKY/WX    TMP DP  RH WIND       PRES   REMARKS
ANDERSON       CLOUDY    35   5  28 E12       30.36F WCI  27
LIBERTY        CLOUDY    32   5  31 E6        30.35F WCI  26
SPARTANBURG    CLOUDY    30   1  29 NE3       30.40F
CLEMSON        CLOUDY    34   6  31 E7        30.37F WCI  28
GREENVILLE     CLOUDY    31   4  31 NE9       30.37F WCI  23
GREENWOOD      LGT RAIN  37   3  24 E8        30.39F WCI  31
GREER          PTSUNNY   30   4  33 SE8       30.38F WCI  22
ROCK HILL      CLOUDY    28   0  29 VRB6      30.43F WCI  22
LAURENS        CLOUDY    34   3  27 E9        30.39F WCI  26


...CENTRAL SOUTH CAROLINA...

CITY           SKY/WX    TMP DP  RH WIND       PRES   REMARKS
COLUMBIA APT   CLOUDY    39   2  21 E8G17     30.41F WCI  33
COLUMBIA OWENS CLOUDY    38   2  22 E8        30.44F WCI  32
MCENTIRE ANGB  CLOUDY    37   4  24 NE9       30.43F WCI  30
ORANGEBURG     SUNNY     40   7  25 E8G17     30.41F WCI  34
SUMTER SHAW    PTSUNNY   35   4  27 E9        30.42F WCI  28
NEWBERRY       CLOUDY    34   3  27 NE8       30.43F WCI  27
AIKEN          FAIR      37   5  25 E10       30.40F WCI  30
BARNWELL       FAIR      43  12  28 E9        30.40F
MANNING        FAIR      37   5  25 N9        30.43F WCI  31
CAMDEN         MOCLDY    34  34 100 E5G13     30.45F WCI  30
LANCASTER      CLOUDY    30  -4  22 NE3       30.44F
WINNSBORO      CLOUDY    34   1  25 E8        30.42F WCI  27


...EASTERN AND COASTAL SOUTH CAROLINA...

CITY           SKY/WX    TMP DP  RH WIND       PRES   REMARKS
MYRTLE BEACH   SUNNY     36  10  35 SE14      30.49F WCI  27
N MYRTLE BCH   MOSUNNY   34  10  37 E9        30.47F WCI  27
CONWAY         FAIR      36   9  32 NE7       30.47F HAZE    WCI  30
MARION         CLOUDY    34   5  29 NE6       30.48F WCI  29
HARTSVILLE     CLOUDY    32   1  27 E8        30.45F WCI  25
FLORENCE       PTSUNNY   35   3  26 NE10      30.47F WCI  27
DARLINGTON     PTSUNNY   34   5  29 NE9       30.47F WCI  26
CHARLESTON APT PTSUNNY   43  14  31 SE10G17   30.42F
MOUNT PLEASANT FAIR      39  23  52 E8        30.44F WCI  34
WALTERBORO     CLEAR     45  10  24 E7        30.42F
BEAUFORT       MOSUNNY   42  22  44 E8        30.41F


...EASTERN GEORGIA...

CITY           SKY/WX    TMP DP  RH WIND       PRES   REMARKS
AUGUSTA BUSH F SUNNY     44  12  27 E10       30.37F
AUGUSTA DANIEL SUNNY     43   9  24 MISG      30.37F
THOMSON        SUNNY     44  18  34 E6        30.39F
WASHINGTON     FAIR      45  21  39 SE5G18    30.33F
CLAXTON        FAIR      49  30  48 E9        30.36F
SYLVANIA       CLEAR     47  26  42 E9        30.37F
STATESBORO     SUNNY     51  12  20 SE7       30.36F
SAVANNAH       CLOUDY    45  28  51 E9        30.38F


...SOUTHERN NORTH CAROLINA...

CITY           SKY/WX    TMP DP  RH WIND       PRES   REMARKS
CHARLOTTE      CLOUDY    27  -4  26 E8        30.43F WCI  19
MONROE         CLOUDY    28   1  31 VRB5      30.43F WCI  23
WADESBORO      CLOUDY    31  -6  20 E7        30.47F WCI  24
ROCKINGHAM     CLOUDY    30  -1  26 NE3       30.46F
RUTHERFORDTON  CLOUDY    24   3  41 CALM      30.41F
ASHEVILLE      CLOUDY    22   3  44 SE9       30.30F WCI  12

$$




USA.gov is the U.S. government's official web portal to all federal, state and local government web resources and services.